Location: Drocourt
(49.0571°N, 1.7669°E)
Time: 14:48:03
(UTC+00:00)

Radarsat Rocket - Pass Details

Date: 09 February 2023
Orbit: 933 x 1491 km, 100.6° (Epoch: 25 March)

Event Time Altitude Azimuth Distance (km) Brightness Sun altitude
Rises 17:35:25 0° 158° (SSE) 3,690 7.0 -5.9°
Reaches altitude 10° 17:37:45 10° 158° (SSE) 2,793 6.3 -6.3°
Maximum altitude 17:44:02 87° 70° (ENE) 1,108 4.3 -7.3°
Drops below altitude 10° 17:51:13 10° 343° (NNW) 3,170 6.7 -8.4°
Sets 17:54:01 0° 343° (NNW) 4,220 7.4 -8.9°
